Cranbrook Airport
CYXC : rendu visible

Aérodrome :











RETROUVEZ-NOUS SUR...

 
LOGIN :

S'inscrire | Disclaimer

   EN    FR    IT 

 









Légende :    VFR   VFR Marginal   IFR   IFR Intensif   IFR Très Intensif
Visi : 
Plafond : 
>= 8 km
>= 3000ft
5 à 8 km
1000 à 3000 ft
1500m à 5 km
500 à 1000 ft
800 à 1500m
200 à 500 ft
< 800m
< 200 ft
Symboles :   Orages  Brouillard  Fortes neiges  Fortes précipitations  Vent > 20 kt






- Altitude de l'aérodrome : 3082 ft
- Code IATA : YXC


CYXC - Cranbrook

DERNIER METAR :
  • 081200Z 34002KT 25SM SKC M01/M11 A3019 RMK SLP244

METARs EXPIRÉS :
  • 081100Z 01008KT 25SM SKC 01/M12 A3016 RMK SLP230
  • 081000Z 34006KT 25SM SKC 02/M12 A3013 RMK SLP221

TAF TAF CYXC
Valide du 08 à 07h jusqu'au 08 à 19h UTC


080638Z 0807/0819 27005KT P6SM SKC RMK NXT FCST BY 081300Z



MET'MAP, la Météo Aéronautique d'un coup d'oeil ! - Copyright ORBIFLY Décembre 2007 - Disclaimer

ORBIFLY MET'MAP TEAM :

Programmation & Développement : Alexandra Zaïnal
Sur une idée originale de : Baudouin d'Aumeries
Assistance à la programmation : Marc-Olivier Méhu
Soutien technique & logistique : Manuel Goepfert

Contact : metmap@orbifly.com




SOURCES & CREDITS :

   NOAA       Earth
Advisory